Location: Unspecified
(41.1637°N, 24.2901°E)
Time: 22:23:30
(UTC+02:00)

ISS - Pass Details

Date: 02 June 2023
Orbit: 411 x 419 km, 51.6° (Epoch: 06 June)

Event Time Altitude Azimuth Distance (km) Brightness Sun altitude
Rises 20:22:58 0° 295° (WNW) 2,351 2.1 -6.0°
Reaches altitude 10° 20:25:21 10° 279° (W) 1,486 0.2 -6.4°
Maximum altitude 20:27:59 22° 227° (SW) 963 -1.8 -6.8°
Drops below altitude 10° 20:30:38 10° 174° (S) 1,481 -1.4 -7.2°
Enters shadow 20:31:45 - 165° (SSE) 1,870 -0.9 -7.3°
